Middlesboro, KY

12:56 PM CDT on May 26, 2017 (GMT -0500)
Middlesboro

Weather History for K1A6 - May, 2014

Change the Weather History Date:

Sunday, May 4, 2014

  Actual Average (KLOZ) Record (KLOZ)
Temperature  
Mean Temperature 62 °F -  
Max Temperature 81 °F 70 °F 87 °F (1955)
Min Temperature 42 °F 46 °F 29 °F (1971)
Degree Days  
Heating Degree Days 4    
Growing Degree Days 12 (Base 50)    
Moisture  
Dew Point 46 °F    
Average Humidity 84    
Maximum Humidity 99    
Minimum Humidity 29    
Precipitation  
Precipitation 0.00 in - - ()
Sea Level Pressure  
Sea Level Pressure 30.01 in    
Wind  
Wind Speed 3 mph (WNW)    
Max Wind Speed 18 mph    
Max Gust Speed 28 mph    
Visibility 10 miles    
Events      
Averages and records for this station are not official NWS values.
T = Trace of Precipitation, MM = Missing Value Source: NWS Daily Summary

Daily Weather History Graph

Daily Weather History Graph

Search for Another Location

Airport or City:

Trip Planner

Search our weather history database for the weather conditions in past years. The results will help you decide how hot, cold, wet, or windy it might be!

Date:

Astronomy

May. 04, 2014 Rise Set
Actual Time 5:38 AM CDT 7:25 PM CDT
Civil Twilight 5:10 AM CDT 7:53 PM CDT
Nautical Twilight 4:36 AM CDT 8:27 PM CDT
Astronomical Twilight 4:00 AM CDT 9:03 PM CDT
Moon 10:01 AM CDT (5/4) No Moon Set
Length of Visible Light 14h 43m
Length of Day
13h 47m
Waxing Crescent, 28% of the Moon is Illuminated
May 4
Waxing Crescent
May 6
First Quarter
May 14
Full
May 21
Last Quarter
May 28
New

Hourly Weather History & Observations

Time (CDT) Temp. Dew Point Humidity Pressure Visibility Wind Dir Wind Speed Gust Speed Precip Events Conditions
12:15 AM 47.8 °F 44.4 °F 88% 30.05 in 10.0 mi Calm Calm - N/A   Clear
12:35 AM 47.5 °F 44.4 °F 89% 30.05 in 10.0 mi Calm Calm - N/A   Clear
12:55 AM 46.8 °F 44.1 °F 90% 30.05 in 10.0 mi Calm Calm - N/A   Clear
1:15 AM 46.4 °F 44.1 °F 92% 30.04 in 10.0 mi Calm Calm - N/A   Clear
1:35 AM 45.7 °F 44.1 °F 94% 30.05 in 10.0 mi Calm Calm - N/A   Clear
1:55 AM 45.9 °F 43.9 °F 93% 30.05 in 10.0 mi Calm Calm - N/A   Clear
2:15 AM 45.5 °F 43.9 °F 94% 30.05 in 10.0 mi Calm Calm - N/A   Clear
2:35 AM 45.0 °F 43.7 °F 95% 30.05 in 10.0 mi Calm Calm - N/A   Clear
2:55 AM 45.0 °F 43.7 °F 95% 30.05 in 10.0 mi Calm Calm - N/A   Clear
3:15 AM 44.6 °F 43.7 °F 97% 30.05 in 10.0 mi Calm Calm - N/A   Clear
3:35 AM 44.1 °F 43.0 °F 96% 30.05 in 10.0 mi Calm Calm - N/A   Clear
3:55 AM 43.7 °F 43.2 °F 98% 30.05 in 10.0 mi Calm Calm - N/A   Clear
4:15 AM 43.7 °F 43.0 °F 97% 30.06 in 10.0 mi Calm Calm - N/A   Clear
4:35 AM 43.2 °F 42.8 °F 99% 30.06 in 10.0 mi Calm Calm - N/A   Clear
4:55 AM 43.2 °F 42.8 °F 99% 30.06 in 10.0 mi Calm Calm - N/A   Clear
5:15 AM 42.8 °F 42.3 °F 98% 30.06 in 10.0 mi Calm Calm - N/A   Clear
5:35 AM 43.0 °F 42.3 °F 97% 30.07 in 10.0 mi Calm Calm - N/A   Clear
5:55 AM 42.8 °F 42.1 °F 97% 30.07 in 10.0 mi Calm Calm - N/A   Clear
6:15 AM 42.8 °F 42.1 °F 97% 30.08 in 10.0 mi Calm Calm - N/A   Clear
6:35 AM 44.1 °F 42.8 °F 95% 30.08 in 10.0 mi Calm Calm - N/A   Clear
7:15 AM 47.1 °F 44.4 °F 90% 30.07 in 10.0 mi Calm Calm - N/A   Clear
7:35 AM 48.6 °F 45.1 °F 88% 30.07 in 10.0 mi Calm Calm - N/A   Clear
7:55 AM 51.6 °F 46.4 °F 82% 30.07 in 10.0 mi Calm Calm - N/A   Clear
8:15 AM 53.6 °F 46.8 °F 78% 30.06 in 10.0 mi Calm Calm - N/A   Clear
8:35 AM 56.8 °F 47.3 °F 70% 30.07 in 10.0 mi Calm Calm - N/A   Clear
8:55 AM 61.3 °F 49.3 °F 65% 30.06 in 10.0 mi Calm Calm - N/A   Clear
9:15 AM 67.8 °F 49.3 °F 51% 30.05 in 10.0 mi Calm Calm - N/A   Clear
9:35 AM 72.3 °F 46.9 °F 40% 30.04 in 10.0 mi WNW 9.2 mph 19.6 mph N/A   Clear
9:55 AM - - N/A% 30.04 in 10.0 mi West 9.2 mph - N/A   Clear
10:15 AM - - N/A% 30.03 in 10.0 mi West 6.9 mph - N/A   Clear
10:35 AM - - N/A% 30.03 in 10.0 mi West 3.5 mph - N/A   Clear
10:55 AM - - N/A% 30.02 in 10.0 mi West 5.8 mph - N/A   Clear
11:35 AM - - N/A% 30.02 in 10.0 mi West 12.7 mph 21.9 mph N/A   Clear
11:55 AM - - N/A% 30.01 in 10.0 mi West 6.9 mph 18.4 mph N/A   Clear
12:15 PM - - N/A% 30.01 in 10.0 mi WSW 12.7 mph 27.6 mph N/A   Clear
12:35 PM 81.5 °F 46.6 °F 29% 30.00 in 10.0 mi WNW 8.1 mph 16.1 mph N/A   Clear
12:55 PM - - N/A% 30.00 in 10.0 mi NW 15.0 mph 25.3 mph N/A   Clear
1:15 PM - - N/A% 29.99 in 10.0 mi West 11.5 mph 20.7 mph N/A   Clear
1:35 PM - - N/A% 29.98 in 10.0 mi West 9.2 mph 21.9 mph N/A   Clear
1:55 PM - - N/A% 29.98 in 10.0 mi WNW 18.4 mph 27.6 mph N/A   Clear
2:15 PM - - N/A% 29.97 in 10.0 mi West 12.7 mph 26.5 mph N/A   Clear
2:35 PM - - N/A% 29.97 in 10.0 mi West 13.8 mph 25.3 mph N/A   Clear
2:55 PM - - N/A% 29.96 in 10.0 mi West 15.0 mph 23.0 mph N/A   Clear
3:15 PM - - N/A% 29.96 in 10.0 mi WNW 11.5 mph 18.4 mph N/A   Clear
3:35 PM - - N/A% 29.96 in 10.0 mi WNW 13.8 mph 25.3 mph N/A   Clear
3:55 PM - - N/A% 29.95 in 10.0 mi West 6.9 mph 19.6 mph N/A   Clear
4:15 PM - - N/A% 29.95 in 10.0 mi NW 10.4 mph 20.7 mph N/A   Clear
4:35 PM - - N/A% 29.95 in 10.0 mi WNW 12.7 mph 23.0 mph N/A   Clear
4:55 PM - - N/A% 29.95 in 10.0 mi WNW 11.5 mph 19.6 mph N/A   Clear
5:15 PM - - N/A% 29.94 in 10.0 mi West 5.8 mph - N/A   Clear
5:35 PM - - N/A% 29.94 in 10.0 mi WNW 9.2 mph 19.6 mph N/A   Clear
5:55 PM - - N/A% 29.94 in 10.0 mi NW 11.5 mph 17.3 mph N/A   Clear
6:15 PM - - N/A% 29.94 in 10.0 mi WNW 5.8 mph - N/A   Clear
6:35 PM - - N/A% 29.95 in 10.0 mi West 6.9 mph - N/A   Clear
6:55 PM - - N/A% 29.95 in 10.0 mi Calm Calm - N/A   Clear
7:15 PM - - N/A% 29.95 in 10.0 mi Calm Calm - N/A   Clear
7:35 PM - - N/A% 29.96 in 10.0 mi Calm Calm - N/A   Clear
7:55 PM - - N/A% 29.96 in 10.0 mi Calm Calm - N/A   Clear
8:15 PM 67.5 °F 51.6 °F 57% 29.96 in 10.0 mi Calm Calm - N/A   Clear
8:35 PM - - N/A% 29.97 in 10.0 mi Calm Calm - N/A   Clear
8:55 PM - - N/A% 29.97 in 10.0 mi Calm Calm - N/A   Clear
9:15 PM 61.5 °F 52.9 °F 73% 29.97 in 10.0 mi Calm Calm - N/A   Clear
9:35 PM 61.2 °F 52.5 °F 73% 29.98 in 10.0 mi Calm Calm - N/A   Clear
9:55 PM 59.5 °F 52.3 °F 77% 29.98 in 10.0 mi Calm Calm - N/A   Clear
10:15 PM 59.5 °F 52.5 °F 78% 29.99 in 10.0 mi Calm Calm - N/A   Clear
10:35 PM 58.3 °F 52.2 °F 80% 29.99 in 10.0 mi Calm Calm - N/A   Clear
10:55 PM 57.4 °F 51.6 °F 81% 29.99 in 10.0 mi Calm Calm - N/A   Clear
11:15 PM 56.7 °F 51.8 °F 84% 29.99 in 10.0 mi Calm Calm - N/A   Clear
11:35 PM 56.3 °F 51.8 °F 85% 29.99 in 10.0 mi Calm Calm - N/A   Clear
11:55 PM 55.6 °F 51.3 °F 85% 29.99 in 10.0 mi Calm Calm - N/A   Clear